OBJECT AW

基本信息
目录编号:
69913
目录名称:
OBJECT AW
国际标识:
2026-156AW
轨道中心:
EARTH
物体状态:
在轨
发射日期:
2026-07-07 UTC
国别:
(TBD)
轨道信息
数据来源: 国际轨道数据
星历时间: 2026-09-05T00:04:56+0800
半长轴: 6972.951km
偏心率: 0.0002137
轨道倾角: 97.751°
近地点辐角: 351.362°
升交点赤经: 147.093°
平近点角: 8.756°
近地点: 593.323km
远地点: 596.305km
周期: 96.579分钟
每日圈数: 14.910008
详细信息
发射场:
AFWTR
轨道高度:
LEO
数据来源:
AOE Integration Group
参考系:
TEME
时间系统:
UTC
历元类型:
SGP4
2D轨道图
3D轨道图
轨道高度分析图
轨道倾角分析图
轨道综合分析图
查看轨道综合分析图